Theta_e
346 353 363 362 362 362 361 362 360 360 359 359 360 359 360 363 364 366 366 365 364 364 365 364 364 364 363 362 362 362 362 365 364 361 359 357 359 361 361 359 355 351 359
350 355 364 365 362 361 360 360 361 360 360 362 362 358 358 362 363 363 364 363 363 366 364 363 363 362 362 361 362 362 361 363 364 362 358 356 355 358 360 359 355 355 358
350 355 358 365 362 361 362 364 362 362 361 361 361 361 361 359 361 363 363 363 363 364 364 364 363 363 362 361 361 360 360 362 362 357 353 347 349 358 359 359 356 358 358
352 354 358 364 364 364 363 364 362 361 361 361 361 362 362 361 362 362 362 362 362 363 363 364 363 362 361 361 360 358 359 361 361 355 348 351 351 359 358 357 357 355 356
350 353 358 365 365 363 362 362 360 361 361 361 360 360 361 361 360 362 362 362 363 362 362 363 363 361 361 361 360 360 359 361 359 352 349 347 348 356 358 357 357 355 357
348 354 363 365 362 362 363 362 362 361 362 361 361 360 359 361 360 362 362 363 363 362 362 363 362 361 360 360 361 363 364 362 353 346 349 353 347 359 357 357 358 354 356
349 354 359 366 364 363 362 362 362 362 361 361 361 361 360 362 361 362 362 362 362 362 362 363 360 360 361 360 360 364 363 357 345 345 345 347 352 359 358 357 358 354 354
349 354 356 363 365 362 363 362 362 361 360 361 360 359 360 361 361 361 361 362 362 362 362 362 359 359 360 360 360 361 362 359 351 349 349 350 356 359 356 357 354 356 354
350 352 356 357 359 362 363 362 362 361 361 360 360 361 361 360 361 361 362 362 361 363 363 361 360 359 360 360 360 363 361 357 348 349 350 351 358 359 357 357 357 355 354
350 352 351 354 353 353 355 362 362 361 361 360 360 360 361 360 360 360 364 364 361 361 361 361 360 358 359 359 359 361 363 357 346 347 349 352 359 359 354 355 354 357 353
349 350 350 350 351 352 353 357 360 361 360 360 358 357 358 350 350 355 362 364 361 361 360 359 357 356 355 356 361 362 360 348 349 350 351 357 358 353 354 354 352 351 352
344 347 349 350 352 351 355 353 353 354 353 351 346 348 349 347 348 354 359 363 361 362 361 359 358 356 356 347 350 360 352 348 349 350 353 360 359 356 356 357 355 352 351
343 349 348 348 350 346 350 351 350 351 350 350 345 347 348 352 350 351 352 353 352 357 351 356 354 353 351 349 349 349 346 346 344 348 356 360 359 355 354 353 353 353 353
343 347 350 348 347 348 353 353 348 348 349 349 349 353 351 349 347 346 349 350 351 347 345 347 349 354 353 352 350 342 343 346 346 348 354 358 358 357 353 353 353 353 351
342 348 346 343 345 349 348 348 350 347 345 348 348 353 350 349 345 347 345 347 350 344 343 345 346 350 345 343 344 345 342 344 347 350 349 357 359 360 354 353 353 351 352
346 346 347 349 350 348 345 344 344 347 346 349 352 349 350 350 348 338 343 349 346 347 345 347 347 345 344 341 342 342 342 344 343 348 352 353 360 358 356 354 352 353 353
346 348 348 348 350 349 346 341 345 348 349 349 348 341 347 347 348 348 347 347 347 347 345 346 347 349 343 345 344 343 343 344 341 343 348 349 354 359 358 355 355 353 352
347 346 348 350 350 346 348 345 350 348 349 351 353 348 350 347 342 341 350 344 348 351 342 343 347 341 342 339 341 343 342 345 342 344 345 346 349 350 358 359 359 357 354
345 345 344 343 346 345 347 351 346 349 352 349 350 350 353 354 350 347 352 343 351 353 348 344 344 344 342 341 343 344 343 343 340 347 346 347 345 347 349 357 361 360 358
343 340 347 346 347 345 347 346 349 350 346 348 348 346 351 354 354 350 349 350 351 348 343 342 343 345 340 341 340 340 340 343 343 343 341 349 348 347 348 348 354 354 360
344 341 346 346 349 344 345 346 345 342 344 347 349 348 352 347 355 353 349 347 347 346 343 342 347 340 347 339 341 338 342 342 341 341 343 343 344 349 348 347 349 349 350
341 341 347 348 348 345 344 347 345 344 349 349 351 351 353 350 354 354 348 347 347 347 349 347 345 344 343 341 335 337 331 334 336 336 341 342 340 344 345 346 351 350 347
341 343 347 348 348 347 346 349 347 347 345 340 343 347 354 354 355 354 348 351 346 348 346 345 343 340 342 336 337 338 332 332 331 333 335 336 335 341 342 345 345 346 347
341 345 347 350 349 347 351 348 345 342 342 343 343 347 354 356 353 354 354 351 346 344 343 350 352 346 344 337 338 344 340 340 332 325 335 333 337 340 336 339 346 346 347
343 345 347 351 349 344 349 350 346 342 348 345 347 351 351 352 354 355 352 353 348 346 346 345 347 348 348 345 338 344 339 344 343 337 324 327 336 338 337 342 342 344 346
343 344 346 350 348 347 348 351 347 342 335 336 342 343 348 350 354 355 355 352 351 347 347 345 347 347 346 349 350 344 345 335 336 338 330 328 330 335 337 340 340 343 347
Wind_Speed
7 7 10 12 12 11 12 12 11 12 12 12 13 14 13 14 14 14 15 16 15 15 16 16 16 17 18 19 19 19 20 20 20 21 20 20 18 16 17 17 17 12 17
14 9 11 12 12 12 12 11 12 12 12 12 13 12 12 12 14 13 14 16 15 14 16 17 16 16 17 18 17 18 17 17 20 21 20 19 19 19 19 17 17 14 17
15 11 10 13 12 12 11 11 12 12 12 13 11 12 12 12 12 14 14 15 14 15 15 16 15 15 15 16 15 15 16 14 19 19 20 8 11 17 17 16 17 17 17
15 11 9 12 12 12 12 11 11 11 12 11 11 12 13 12 11 13 14 14 15 14 15 15 15 13 14 14 13 12 11 8 6 16 9 9 11 15 15 14 16 17 16
15 12 11 14 12 13 13 13 11 11 11 11 12 11 12 13 12 13 14 15 15 14 15 14 13 12 13 13 9 7 8 15 21 15 11 8 5 12 15 16 14 16 16
15 11 12 14 14 14 13 12 12 11 12 11 11 11 12 12 12 13 15 14 14 14 14 13 12 12 12 10 11 12 21 18 18 12 10 9 5 16 15 15 15 15 15
15 11 10 13 14 14 13 12 11 12 12 11 11 11 11 13 13 14 13 14 13 13 14 12 10 11 10 10 11 14 18 20 12 11 8 6 7 13 14 14 14 15 14
16 12 11 13 14 13 13 13 11 11 10 11 12 11 10 13 13 13 13 13 12 13 13 11 8 9 10 8 7 6 11 17 14 10 7 5 9 13 14 12 13 12 14
17 13 9 8 12 13 13 13 12 10 10 11 12 11 10 12 13 13 13 13 14 14 14 10 8 7 8 8 9 10 14 17 9 7 8 3 11 12 13 11 11 13 12
16 15 11 9 7 6 6 12 12 10 10 11 11 11 12 12 13 13 11 12 13 13 11 9 7 5 5 7 7 7 15 18 9 8 4 4 9 12 12 11 11 13 11
13 14 13 11 8 7 6 7 9 10 10 11 11 11 10 3 5 7 9 11 12 12 10 6 3 2 2 2 7 7 8 4 7 4 3 9 9 11 12 11 11 10 9
14 11 12 11 11 9 7 6 6 6 4 4 5 2 1 2 4 5 7 10 11 10 9 7 3 2 6 3 1 6 2 6 5 4 3 10 8 11 9 8 9 9 7
10 13 14 13 10 7 7 4 2 3 2 4 6 5 2 2 3 3 1 2 2 7 2 3 4 2 5 4 2 3 6 6 4 3 6 10 8 9 8 7 7 6 5
15 12 14 10 9 6 4 5 4 3 4 3 4 6 4 2 4 2 1 2 2 1 4 3 3 2 7 9 8 10 9 6 3 3 5 10 9 9 8 7 5 5 4
16 13 11 8 7 5 4 5 6 4 4 4 4 4 7 5 3 2 2 1 2 1 3 2 3 4 2 5 6 11 8 7 6 4 2 10 9 8 8 7 6 4 3
16 12 5 8 6 6 6 7 5 4 3 4 4 4 5 2 5 0 3 0 4 4 3 1 4 3 3 3 5 6 8 7 6 6 4 4 8 7 7 7 6 5 3
15 15 9 7 8 8 7 5 5 2 4 3 3 3 2 4 5 3 3 5 4 3 5 3 4 0 2 4 3 3 3 6 7 7 6 4 4 8 8 8 7 6 5
15 14 11 9 9 7 5 6 4 4 4 4 2 2 4 3 6 4 3 1 1 4 4 3 3 3 2 2 0 2 1 2 7 7 6 5 4 5 7 10 9 8 7
15 13 8 8 9 7 6 6 5 7 5 4 4 1 3 4 5 4 3 3 4 1 2 2 2 2 1 1 2 3 4 4 4 5 7 7 7 5 4 9 10 9 10
10 10 12 9 9 8 5 4 4 4 4 3 3 4 2 1 4 1 3 3 4 2 3 2 2 2 2 1 3 1 3 4 4 3 4 7 8 7 6 6 5 5 10
10 10 9 11 8 6 2 3 2 3 2 2 3 5 4 2 3 3 2 4 4 2 4 4 3 2 2 2 1 2 2 4 5 3 4 4 6 9 6 5 4 4 4
11 9 10 8 8 5 4 2 2 2 2 3 2 4 5 5 5 3 5 3 3 1 3 2 4 1 1 3 3 1 3 4 4 0 5 4 6 5 5 6 7 7 5
14 10 10 10 8 7 6 4 3 4 3 2 3 2 4 5 4 3 5 5 1 1 0 1 3 4 2 3 1 4 1 1 1 3 2 4 4 3 5 5 6 7 7
13 12 9 10 8 7 6 4 6 4 3 2 3 3 5 6 4 2 4 7 4 3 3 2 1 3 2 3 3 1 1 3 2 2 3 3 1 4 6 4 5 6 6
13 13 11 10 8 7 6 5 5 4 4 1 2 5 4 4 5 5 3 6 4 1 1 2 2 4 2 2 1 3 3 2 2 3 3 3 3 3 4 5 5 5 5
13 12 12 11 9 7 7 6 5 8 7 4 1 0 4 2 3 5 6 6 5 1 1 2 3 3 2 3 2 2 2 1 1 1 1 3 4 4 4 3 4 5 3
Wind_Direction
135 137 136 122 115 105 97 89 86 81 77 76 76 75 75 74 78 79 88 89 90 91 92 86 86 84 87 89 92 95 97 94 93 89 89 84 85 86 81 79 74 72 72
129 142 142 121 110 103 103 101 93 85 81 75 74 76 81 77 87 86 89 92 94 93 91 92 90 90 91 93 96 96 100 103 103 94 86 86 84 80 79 80 80 71 75
129 136 132 118 114 111 110 99 93 87 84 84 84 85 83 89 87 86 85 91 92 91 90 96 94 95 98 98 100 104 110 120 100 95 96 85 81 82 79 83 78 76 75
132 127 120 120 118 112 98 106 98 96 92 88 84 86 93 95 94 93 95 89 92 93 94 101 101 100 105 98 95 102 105 119 120 93 88 75 82 84 81 85 86 80 78
127 120 128 123 117 106 105 101 97 97 97 99 96 88 90 96 95 97 95 98 99 100 104 101 107 107 97 92 91 92 114 89 87 85 82 79 70 87 86 81 83 80 79
116 119 124 126 117 109 110 109 110 107 105 99 97 96 95 101 99 100 100 105 103 105 105 107 105 96 93 94 77 62 103 106 92 89 85 82 79 85 86 83 87 81 80
118 126 120 121 121 116 119 114 110 107 108 110 109 102 101 100 102 104 107 105 108 113 106 107 106 109 102 75 62 68 94 101 99 90 88 82 84 94 92 88 90 87 83
130 126 125 126 122 125 122 117 109 112 115 107 99 102 104 103 106 107 106 107 110 120 118 112 120 118 111 112 86 62 108 105 97 92 85 85 91 91 95 93 88 94 87
129 126 132 133 130 133 127 124 123 124 118 114 109 113 114 114 112 105 106 112 110 113 125 129 138 140 137 116 78 49 108 103 97 108 104 87 105 101 91 94 96 85 82
136 142 144 140 134 130 134 131 134 129 122 115 111 122 120 119 114 111 112 121 122 122 127 139 154 155 138 124 102 82 100 99 96 97 91 98 111 101 97 88 85 86 84
144 150 148 150 149 137 140 145 136 135 133 120 115 127 123 117 135 108 128 124 120 120 121 125 103 333 278 172 140 129 110 105 104 105 109 118 103 103 100 98 94 91 89
145 153 145 143 146 157 151 141 150 153 129 120 131 140 294 309 134 129 135 126 121 123 118 131 131 223 277 256 193 169 151 114 115 125 120 116 113 112 109 111 107 101 99
140 141 151 157 166 157 135 162 156 125 152 161 162 145 184 146 80 87 352 105 135 111 92 113 205 214 269 267 245 166 139 125 144 138 129 124 125 118 120 115 113 117 115
140 146 142 159 147 132 162 153 168 156 165 163 155 169 169 115 103 105 270 196 204 120 151 180 290 287 247 256 257 148 133 127 140 126 147 145 147 146 139 138 140 135 126
135 137 147 136 125 173 161 145 163 179 169 135 121 71 118 159 138 162 97 135 173 214 215 174 215 241 174 88 61 104 128 141 143 135 154 158 165 155 158 160 162 163 166
134 133 141 125 129 118 105 121 130 123 135 132 104 109 110 153 157 135 148 195 171 187 214 317 331 24 81 74 74 95 141 156 143 143 158 172 179 178 180 180 181 192 206
137 141 146 141 114 115 128 129 92 114 128 108 125 135 86 105 138 115 143 178 194 191 151 72 20 82 78 53 87 45 92 121 155 152 163 174 184 196 203 206 204 205 219
141 139 151 139 121 126 135 111 108 85 94 79 97 357 174 223 117 152 178 171 161 122 135 116 36 358 11 125 251 214 234 215 156 169 162 167 177 195 213 220 217 217 224
146 145 140 141 136 143 135 108 127 119 88 122 116 17 254 194 146 158 238 204 115 13 128 111 190 192 154 303 244 234 220 235 215 153 176 177 184 188 195 222 218 224 233
128 135 147 151 142 153 132 131 112 120 153 148 173 187 264 251 116 90 146 151 71 156 140 184 130 224 171 222 317 321 250 206 222 193 182 177 191 189 199 194 206 229 239
135 141 127 150 140 141 128 128 137 161 129 138 171 238 227 176 183 192 23 96 105 157 220 157 143 146 286 207 286 352 254 262 223 195 187 190 166 197 192 185 198 215 229
152 147 128 150 139 156 155 131 140 150 79 107 122 233 186 193 192 178 105 171 140 133 236 111 71 52 323 215 152 127 15 333 332 196 176 191 212 175 190 187 193 212 213
157 152 142 159 157 169 159 112 87 84 93 94 187 187 202 189 203 190 155 144 180 33 308 83 146 105 322 303 306 134 115 174 342 334 134 197 149 164 187 192 201 200 202
164 155 147 160 165 187 149 138 156 169 147 223 187 189 174 189 201 197 154 116 140 132 114 356 237 105 119 352 330 247 151 136 124 356 324 297 255 202 203 206 204 231 223
161 167 158 155 164 189 165 159 173 151 126 171 72 178 163 176 178 186 168 131 119 56 136 2 351 88 75 77 39 341 0 48 114 138 235 294 328 254 220 205 210 223 225
167 161 165 155 173 186 175 179 161 150 163 154 72 300 157 190 192 191 167 142 145 214 357 260 272 89 68 47 32 14 68 57 17 91 176 250 199 260 246 230 161 219 210